Orbital Elements
Epoch 2013 Mar. 9.0 TT = JDT 2456360.5
T 2013 Mar. 9.03708 TT MPC
q 1.4133424 (2000.0) P Q
z +0.0042321 Peri. 95.82566 +0.14122660 +0.98984709
+/-0.0000007 Node 182.47171 -0.98965179 +0.14074574
e 0.9940186 Incl. 21.85715 -0.02538457 +0.01983359
From 1099 observations 2012 Mar. 15-2014 Feb. 2, mean residual 0".5.
|